FW7631 Weather Reports


time (UTC)temp
F
wind
direction
speed
knots
gust
knots
rain 1hr
in
rain 24hr
in
rain mn
in
humidity
%
barometer
mb
20260507020517 46 90 1.7 3.5 0.00 0.80 0.80 94 1012.6
20260507015517 46 338 1.7 4.3 0.00 0.80 0.80 93 1012.6
20260507014517 47 90 1.7 3.5 0.00 0.80 0.80 93 1012.6
20260507013517 47 135 0.9 4.3 0.00 0.80 0.80 93 1012.6
20260507012517 47 315 1.7 4.3 0.00 0.80 0.80 94 1012.3
20260507011517 48 113 1.7 5.2 0.00 0.80 0.80 93 1012.1
20260507010517 49 90 2.6 7.8 0.00 0.80 0.80 93 1011.5
20260507005537 50 23 1.7 7.8 0.00 0.80 0.80 94 1011.5
20260507004558 51 270 1.7 12.2 0.00 0.80 0.80 95 1011.5
20260507003517 51 315 2.6 5.2 0.01 0.80 0.80 94 1011.1
20260507002517 52 135 0.9 3.5 0.01 0.80 0.80 94 1011.0
20260507001517 52 270 2.6 10.4 0.01 0.80 0.80 94 1011.1
20260507000637 53 225 0.9 4.3 0.01 0.80 0.80 96 1010.6
20260506235537 53 225 1.7 5.2 0.02 0.80 0.80 95 1010.6
20260506234516 54 158 2.6 5.2 0.03 0.80 0.80 94 1010.4
20260506233517 55 180 2.6 9.6 0.04 0.79 0.79 96 1010.4
20260506232516 56 0.0 0.9 0.04 0.79 0.79 97 1010.0
20260506231517 56 203 1.7 6.1 0.04 0.79 0.79 98 1009.8
20260506230537 57 0.0 0.9 0.04 0.79 0.79 98 1009.8
20260506225516 57 0.0 0.9 0.03 0.78 0.78 98 1009.6
20260506224516 57 248 0.9 2.6 0.02 0.77 0.77 98 1009.4
20260506223516 57 225 1.7 2.6 0.01 0.75 0.75 98 1009.5
20260506222557 57 248 0.9 2.6 0.01 0.75 0.75 98 1009.4
20260506221516 57 225 1.7 3.5 0.02 0.75 0.75 98 1009.3
20260506220516 57 270 1.7 6.1 0.03 0.75 0.75 98 1009.5
20260506215517 57 248 1.7 3.5 0.04 0.75 0.75 98 1009.4
20260506214517 57 270 1.7 4.3 0.05 0.75 0.75 98 1009.5
20260506213516 57 225 2.6 6.1 0.04 0.74 0.74 98 1009.4
20260506212517 57 180 1.7 3.5 0.05 0.74 0.74 98 1009.3
20260506211516 57 293 0.9 2.6 0.05 0.73 0.73 98 1009.3
20260506210516 57 225 0.9 2.6 0.05 0.72 0.72 98 1009.4
20260506205516 57 225 1.7 5.2 0.05 0.71 0.71 98 1009.3
20260506204516 58 270 1.7 8.7 0.04 0.70 0.70 98 1009.5
20260506203516 58 248 2.6 6.1 0.05 0.70 0.70 98 1009.5
20260506202516 58 248 2.6 6.1 0.05 0.69 0.69 98 1009.5
20260506201516 58 270 3.5 10.4 0.04 0.68 0.68 98 1009.7
20260506200516 58 248 2.6 6.1 0.05 0.67 0.67 98 1009.7
20260506195516 58 225 2.6 6.1 0.07 0.66 0.66 98 1009.7
20260506194516 57 315 2.6 7.0 0.09 0.66 0.66 98 1009.9
20260506193516 58 293 1.7 7.8 0.09 0.65 0.65 98 1009.9
20260506192516 57 225 2.6 7.0 0.10 0.64 0.64 98 1009.9
20260506191536 58 225 2.6 7.0 0.15 0.64 0.64 98 1009.9
20260506190516 58 225 2.6 6.1 0.23 0.62 0.62 98 1010.2
20260506185516 57 225 2.6 6.1 0.26 0.59 0.59 98 1010.0
20260506184516 57 248 2.6 3.5 0.28 0.57 0.57 98 1010.1
20260506183516 57 225 1.7 6.1 0.30 0.56 0.56 98 1010.1
20260506182516 57 248 1.7 3.5 0.31 0.54 0.54 98 1010.5
20260506181516 57 248 0.9 2.6 0.28 0.49 0.49 98 1010.7
20260506180536 57 248 0.9 1.7 0.21 0.39 0.39 98 1010.9
20260506175516 57 270 0.9 2.6 0.18 0.33 0.33 98 1010.8
20260506174536 57 158 0.9 3.5 0.16 0.29 0.29 98 1011.1
20260506173516 57 248 2.6 6.1 0.16 0.26 0.26 98 1011.3
20260506172516 57 248 1.7 4.3 0.14 0.23 0.23 98 1011.6
20260506171516 57 248 1.7 5.2 0.14 0.21 0.21 98 1011.9
20260506170516 57 203 1.7 6.1 0.12 0.18 0.18 97 1012.1
20260506165516 57 248 1.7 4.3 0.10 0.15 0.16 97 1012.2
20260506164536 57 270 0.9 2.6 0.09 0.13 0.13 97 1012.0
20260506163516 57 248 1.7 6.1 0.07 0.10 0.10 97 1012.1
20260506162535 58 248 0.9 3.5 0.07 0.09 0.09 97 1012.2
20260506161516 58 248 0.9 3.5 0.05 0.07 0.07 96 1012.3
20260506160516 58 225 0.9 3.5 0.05 0.06 0.06 96 1012.3
20260506155516 58 248 0.9 2.6 0.04 0.05 0.05 96 1012.4
20260506154516 58 248 0.9 2.6 0.04 0.04 0.04 95 1012.5
20260506153516 59 248 0.9 3.5 0.03 0.03 0.03 94 1012.6
20260506152536 59 135 0.9 3.5 0.02 0.02 0.02 94 1012.8
20260506151516 59 225 1.7 5.2 0.02 0.02 0.02 93 1013.1
20260506150515 59 248 0.9 4.3 0.01 0.01 0.01 92 1013.0
20260506145515 60 225 1.7 7.8 0.01 0.01 0.01 90 1013.2
20260506144516 60 270 1.7 5.2 0.00 0.00 0.00 87 1013.3
20260506143515 60 0.0 3.5 0.00 0.00 0.00 85 1013.3
20260506142516 60 180 0.9 6.1 0.00 0.00 0.00 84 1013.3
20260506141515 60 0.0 0.0 0.00 0.00 0.00 85 1013.2
20260506140515 60 0.0 1.7 0.00 0.00 0.00 85 1013.0
20260506135515 59 180 0.9 3.5 0.00 0.00 0.00 85 1013.1
20260506134515 59 225 0.9 2.6 0.00 0.00 0.00 87 1012.7
20260506133515 58 180 0.9 4.3 0.00 0.00 0.00 88 1012.7
20260506132516 57 0.0 0.0 0.00 0.00 0.00 88 1012.9
20260506131536 56 0.0 0.0 0.00 0.00 0.00 90 1012.9
20260506130535 56 0.0 0.0 0.00 0.00 0.00 89 1013.1
20260506125515 55 0.0 0.0 0.00 0.00 0.00 90 1013.3
20260506124535 55 0.0 0.0 0.00 0.00 0.00 91 1013.4
20260506123555 55 0.0 0.0 0.00 0.00 0.00 92 1013.4
20260506122515 54 0.0 0.0 0.00 0.00 0.00 92 1013.5
20260506121515 54 0.0 0.0 0.00 0.00 0.00 92 1013.5
20260506120535 54 0.0 0.0 0.00 0.00 0.00 93 1013.4
20260506115515 53 0.0 0.0 0.00 0.00 0.00 94 1012.9
20260506114535 53 0.0 0.0 0.00 0.00 0.00 95 1013.2
20260506113515 52 0.0 0.0 0.00 0.00 0.00 96 1013.2
20260506112535 52 0.0 0.0 0.00 0.00 0.00 96 1013.3
20260506111515 51 0.0 0.0 0.00 0.00 0.00 97 1013.4
20260506110515 51 0.0 0.0 0.00 0.00 0.00 97 1013.3
20260506105515 51 0.0 0.0 0.00 0.00 0.00 97 1013.3
20260506104537 51 0.0 0.0 0.00 0.00 0.00 97 1013.3
20260506103557 51 0.0 0.0 0.00 0.00 0.00 97 1013.2
20260506102517 51 0.0 0.0 0.00 0.00 0.00 97 1013.4
20260506101517 51 0.0 0.0 0.00 0.00 0.00 96 1013.7
20260506100517 51 0.0 0.0 0.00 0.00 0.00 96 1013.7
20260506095517 51 0.0 0.0 0.00 0.00 0.00 96 1013.7
20260506094517 51 0.0 0.0 0.00 0.00 0.00 96 1013.6
20260506093517 51 0.0 0.0 0.00 0.00 0.00 96 1013.7
20260506092517 51 0.0 0.0 0.00 0.00 0.00 96 1013.7
20260506091517 51 0.0 0.0 0.00 0.00 0.00 96 1013.9
20260506090517 52 0.0 0.0 0.00 0.00 0.00 95 1014.0
20260506085517 52 0.0 0.0 0.00 0.00 0.00 95 1014.0
20260506084517 52 0.0 0.0 0.00 0.00 0.00 95 1014.0
20260506083516 52 0.0 0.0 0.00 0.00 0.00 95 1014.2
20260506082517 52 0.0 0.0 0.00 0.00 0.00 95 1014.5
20260506081517 53 0.0 0.0 0.00 0.00 0.00 95 1014.2
20260506080517 53 0.0 0.0 0.00 0.00 0.00 95 1014.3
20260506072517 53 0.0 0.0 0.00 0.00 0.00 93 1014.7
20260506071516 53 0.0 0.0 0.00 0.00 0.00 93 1014.4
20260506070517 54 0.0 0.0 0.00 0.00 0.00 92 1014.8
20260506062517 55 0.0 0.0 0.00 0.00 0.00 90 1014.7
20260506061516 55 0.0 0.0 0.00 0.00 0.00 90 1014.5
20260506060536 55 0.0 0.0 0.00 0.00 0.00 90 1014.5
20260506050516 57 0.0 0.0 0.00 0.00 0.00 86 1015.0
20260506044516 58 0.0 0.0 0.00 0.00 0.00 85 1015.2
20260506043536 58 0.0 0.0 0.00 0.00 0.00 84 1015.2
20260506042516 58 0.0 0.0 0.00 0.00 0.00 84 1015.1
20260506041536 59 0.0 0.0 0.00 0.00 0.00 84 1015.2
20260506040517 58 0.0 0.0 0.00 0.00 0.00 84 1015.2
20260506035517 58 0.0 0.0 0.00 0.00 0.00 85 1015.0
20260506034517 58 0.0 0.0 0.00 0.00 0.00 85 1014.8
20260506033537 59 0.0 0.0 0.00 0.00 0.00 85 1015.0
20260506032517 59 0.0 0.0 0.00 0.00 0.00 85 1015.1
20260506031537 59 0.0 0.0 0.00 0.00 0.00 85 1015.0
20260506030537 58 0.0 0.0 0.00 0.00 0.00 85 1015.1
20260506025517 58 0.0 0.0 0.00 0.00 0.00 86 1015.2
20260506024517 58 0.0 0.0 0.00 0.00 0.00 86 1015.1
20260506023517 58 0.0 0.0 0.00 0.00 0.00 86 1014.9
20260506022517 59 0.0 0.0 0.00 0.00 0.00 87 1014.9
20260506021517 58 0.0 0.0 0.00 0.00 0.00 86 1015.0